Location: Worth Mountain WMA
(34.9569°N, 81.4819°W)
Time: 22:55:20
(UTC-05:00)

Cosmos 1633 - Pass Details

Date: 18 August 2017
Orbit: 469 x 487 km, 82.5° (Epoch: 22 November)

Event Time Altitude Azimuth Distance (km) Brightness Sun altitude
Rises 20:52:30 0° 183° (S) 2,504 6.0 -9.0°
Reaches altitude 10° 20:54:34 10° 182° (S) 1,634 5.0 -9.4°
Maximum altitude 20:58:08 79° 97° (E) 490 2.4 -10.0°
Drops below altitude 10° 21:01:45 10° 9° (N) 1,658 5.5 -10.7°
Sets 21:03:52 0° 8° (N) 2,546 6.4 -11.1°
